Flag for Switzerland Weather past 2 weeks in Bellinzona, Ticino, Switzerland

Now
53 °F

Cool.


Feels Like: 52 °F
Forecast: 41 / 74 °F
Wind: 5 mph from Northwest

Location: Locarno-Magadino

Current Time: Apr 19, 2015 at 12:31:28 PM

Latest Report: Apr 19, 2015 at 11:00 AM


Visibility: N/A

Pressure: 30.17 "Hg

Humidity: 39%

Dew point: 29 °F

Location of BellinzonaLocation

Historic Weather in Bellinzona — Graph

°F

Bellinzona temperature yesterday

Maximum temperature yesterday: 74 °F (at 5:00 PM)
Minimum temperature yesterday: 44 °F (at 3:00 AM)
Average temperature yesterday: 58 °F

Past Weeks' High & Low Weather Summary

 TemperatureHumidityPressure
High78 °F (Apr 13, 6:00 PM)97% (Apr 18, 3:00 AM)30.46 "Hg (Apr 18, 3:00 AM)
Low32 °F (Apr 8, 7:00 AM)9% (Apr 7, 2:00 PM)29.73 "Hg (Apr 4, 6:00 PM)
Average56 °F49%30.18 "Hg
* Reported Apr 4 11:00 AM — Apr 19 11:00 AM, Bellinzona, Weather by CustomWeather, © 2015

Note: Actual official high and low records may vary slightly from our data, if they occured in-between our weather recording intervals... More about our weather records

Advertising

Bellinzona weather history for previous 24 hours

 ConditionsComfort  
Time TempWeatherWind HumidityBarometerVisibility
11:00 AM
Sun, Apr 19
53 °FCool.5 mph39%30.17 "HgN/A
10:00 AM52 °FCool.7 mph59%30.18 "HgN/A
9:00 AM50 °FCool.6 mph67%30.19 "HgN/A
8:00 AM49 °FCool.6 mph70%30.19 "HgN/A
7:00 AM48 °FCool.5 mph74%30.19 "HgN/A
6:00 AM48 °FCool.6 mph74%30.19 "HgN/A
5:00 AM47 °FCool.5 mph84%30.19 "HgN/A
4:00 AM49 °FCool.7 mph73%30.18 "HgN/A
3:00 AM50 °FCool.7 mph68%30.18 "HgN/A
2:00 AM52 °FCool.5 mph64%30.17 "HgN/A
1:00 AM53 °FCool.14 mph63%30.15 "HgN/A
12:00 AM53 °FCool.10 mph66%30.11 "HgN/A
11:00 PM
Sat, Apr 18
54 °FCool.6 mph65%30.07 "HgN/A
10:00 PM55 °FCool.17 mph67%30.00 "HgN/A
9:00 PM62 °FMild.15 mph23%29.93 "HgN/A
8:00 PM65 °FMild.20 mph21%29.89 "HgN/A
7:00 PM67 °FMild.16 mph20%29.86 "HgN/A
6:00 PM71 °FMild.13 mph18%29.83 "HgN/A
5:00 PM74 °FMild.12 mph18%29.81 "HgN/A
4:00 PM71 °FMild.6 mph41%29.82 "HgN/A
3:00 PM69 °FMild.7 mph49%29.83 "HgN/A
2:00 PM69 °FMild.8 mph43%29.84 "HgN/A
1:00 PM66 °FMild.6 mph47%29.86 "HgN/A
12:00 PM65 °FMild.6 mph56%29.87 "HgN/A
Weather by CustomWeather, © 2015

See weather overviewHow to use our weather pages